Flag for Netherlands Weather past 2 weeks in Eindhoven, Netherlands

Now
55 °F

Partly sunny.


Feels Like: 52 °F
Forecast: 45 / 66 °F
Wind: 13 mph from Southwest

Location: Eindhoven Airport

Current Time: May 30, 2015 at 3:24:13 PM

Latest Report: May 30, 2015 at 2:55 PM


Visibility: N/A

Pressure: 29.98 "Hg

Humidity: 72%

Dew point: 46 °F

Location of EindhovenLocation

Historic Weather in Eindhoven — Graph

°F

Eindhoven temperature yesterday

Maximum temperature yesterday: 63 °F (at 1:25 PM)
Minimum temperature yesterday: 46 °F (at 2:55 AM)
Average temperature yesterday: 54 °F

Past Weeks' High & Low Weather Summary

 TemperatureHumidityPressure
High70 °F (May 22, 2:25 PM)100% (May 16, 2:25 PM)30.33 "Hg (May 16, 2:25 PM)
Low37 °F (May 21, 4:55 AM)33% (May 24, 5:55 PM)29.65 "Hg (May 18, 5:25 PM)
Average54 °F70%30.05 "Hg
* Reported May 15 1:25 PM — May 30 1:55 PM, Eindhoven, Weather by CustomWeather, © 2015

Note: Actual official high and low records may vary slightly from our data, if they occured in-between our weather recording intervals... More about our weather records

Advertising

Eindhoven weather history for previous 24 hours

 ConditionsComfort  
Time TempWeatherWind HumidityBarometerVisibility
1:55 PM
Sat, May 30
54 °FBroken clouds.14 mph67%29.95 "HgN/A
1:25 PM55 °FPartly sunny.10 mph77%29.95 "HgN/A
12:55 PM54 °FPartly sunny.9 mph82%29.95 "HgN/A
12:25 PM48 °FSprinkles. Partly sunny.12 mph82%29.95 "HgN/A
12:02 PM48 °FRain showers. Mostly cloudy.14 mph82%29.95 "Hg4 mi
11:55 AM50 °FLight rain. Broken clouds.20 mph71%29.92 "HgN/A
11:25 AM55 °FLight rain. Broken clouds.16 mph63%29.92 "HgN/A
10:55 AM57 °FPassing clouds.14 mph63%29.89 "HgN/A
10:25 AM55 °FBroken clouds.18 mph63%29.89 "HgN/A
9:55 AM55 °FBroken clouds.14 mph67%29.89 "HgN/A
9:25 AM54 °FCool.13 mph72%29.89 "HgN/A
8:55 AM54 °FPassing clouds.12 mph72%29.89 "HgN/A
8:25 AM52 °FPassing clouds.10 mph77%29.89 "HgN/A
7:55 AM50 °FCool.9 mph82%29.86 "HgN/A
7:25 AM48 °FCool.10 mph87%29.86 "HgN/A
6:55 AM46 °FFog.8 mph93%29.86 "Hg6 mi
6:25 AM46 °FFog.8 mph93%29.86 "Hg4 mi
5:55 AM45 °FFog.8 mph100%29.83 "Hg3 mi
5:25 AM45 °FFog.6 mph93%29.83 "Hg3 mi
5:02 AM45 °FFog.7 mph93%29.83 "Hg4 mi
4:55 AM45 °FPassing clouds.6 mph93%29.83 "HgN/A
4:25 AM45 °FPassing clouds.7 mph93%29.83 "HgN/A
3:55 AM46 °FCool.8 mph93%29.80 "HgN/A
3:25 AM48 °FPartly cloudy.7 mph87%29.80 "HgN/A
2:55 AM48 °FPartly cloudy.8 mph94%29.80 "HgN/A
2:25 AM48 °FMostly cloudy.8 mph94%29.80 "HgN/A
1:55 AM48 °FPassing clouds.10 mph94%29.80 "HgN/A
1:25 AM48 °FPassing clouds.10 mph94%29.77 "HgN/A
12:55 AM48 °FPassing clouds.10 mph94%29.77 "HgN/A
12:25 AM48 °FPassing clouds.12 mph94%29.77 "HgN/A
11:55 PM
Fri, May 29
48 °FMostly cloudy.13 mph94%29.77 "HgN/A
11:25 PM48 °FOvercast.13 mph94%29.77 "HgN/A
10:55 PM48 °FOvercast.10 mph94%29.77 "HgN/A
10:25 PM48 °FBroken clouds.10 mph94%29.74 "HgN/A
9:55 PM48 °FLight rain. Broken clouds.12 mph87%29.74 "HgN/A
9:25 PM48 °FLight rain. Overcast.13 mph94%29.77 "HgN/A
8:55 PM50 °FDrizzle. Overcast.14 mph82%29.77 "HgN/A
8:25 PM50 °FLight rain. Overcast.9 mph82%29.74 "HgN/A
7:55 PM50 °FLight rain. Mostly cloudy.13 mph82%29.74 "HgN/A
7:25 PM55 °FDrizzle. Mostly cloudy.23 mph72%29.74 "HgN/A
6:55 PM57 °FDrizzle. More clouds than sun.20 mph63%29.71 "HgN/A
6:25 PM57 °FDrizzle. Cloudy.20 mph63%29.74 "HgN/A
5:55 PM59 °FOvercast.18 mph55%29.74 "HgN/A
5:25 PM59 °FBroken clouds.24 mph55%29.74 "HgN/A
4:55 PM61 °FCloudy.18 mph52%29.74 "HgN/A
4:25 PM59 °FMostly cloudy.20 mph51%29.74 "HgN/A
3:55 PM61 °FPartly sunny.17 mph48%29.74 "HgN/A
3:25 PM61 °FPartly sunny.20 mph48%29.74 "HgN/A
Weather by CustomWeather, © 2015

See weather overviewHow to use our weather pages